Home   Weather   Volta Redonda   Past weeks

Flag for Brazil Past Weather in Volta Redonda, Rio de Janeiro, Brazil — Yesterday and Last 2 Weeks

72 °F

More clouds than sun.

Feels Like: 71 °F
Forecast: 65 / 79 °F
Wind: 2 mph from East

Location: Galeao

Current Time: Oct 23, 2016 at 7:52:03 AM

Latest Report: Oct 23, 2016 at 7:00 AM

Visibility: N/A

Pressure: 30.09 "Hg

Humidity: 83%

Dew Point: 66 °F

Location of Volta RedondaLocation

Past Weather in Volta Redonda — Graph


Volta Redonda Temperature Yesterday

Maximum temperature yesterday: 75 °F (at 12:00 AM)
Minimum temperature yesterday: 70 °F (at 10:00 AM)
Average temperature yesterday: 73 °F

High & Low Weather Summary for the Past Weeks

High97 °F (Oct 20, 4:00 PM)94% (Oct 22, 10:00 AM)30.24 "Hg (Oct 22, 10:00 AM)
Low63 °F (Oct 8, 5:00 AM)38% (Oct 13, 4:00 PM)29.65 "Hg (Oct 20, 5:00 PM)
Average77 °F73%29.96 "Hg
* Reported Oct 8 5:00 AM — Oct 23 6:00 AM, Volta Redonda, Weather by CustomWeather, © 2016

Note: Actual official high and low records may vary slightly from our data, if they occured in-between our weather recording intervals... More about our weather records


Volta Redonda Weather History for the Previous 24 Hours

Scroll right to see more
Time TempWeatherWind HumidityBarometerVisibility
6:00 AM
Sun, Oct 23
72 °FPassing clouds.No wind78%30.09 "HgN/A
5:00 AM70 °FPartly cloudy.7 mph78%30.09 "Hg4 mi
4:00 AM70 °FPartly cloudy.6 mph78%30.09 "Hg5 mi
3:00 AM70 °FPartly cloudy.6 mph83%30.09 "HgN/A
2:00 AM72 °FPartly cloudy.6 mph78%30.09 "HgN/A
1:00 AM72 °FPartly cloudy.5 mph78%30.12 "HgN/A
12:00 AM72 °FMostly cloudy.6 mph78%30.12 "HgN/A
11:00 PM
Sat, Oct 22
73 °FMostly cloudy.7 mph74%30.12 "HgN/A
10:00 PM73 °FMostly cloudy.6 mph74%30.12 "HgN/A
9:00 PM73 °FMostly cloudy.8 mph74%30.09 "HgN/A
8:00 PM73 °FOvercast.9 mph74%30.09 "HgN/A
7:00 PM73 °FMostly cloudy.9 mph74%30.09 "HgN/A
6:00 PM73 °FBroken clouds.9 mph78%30.07 "HgN/A
5:00 PM73 °FMore clouds than sun.9 mph78%30.04 "HgN/A
4:00 PM73 °FMostly cloudy.6 mph78%30.04 "HgN/A
3:00 PM73 °FPartly sunny.3 mph78%30.07 "HgN/A
2:00 PM72 °FLight rain. Partly sunny.3 mph88%30.07 "Hg2 mi
1:00 PM72 °FFog.8 mph88%30.09 "Hg2 mi
12:00 PM72 °FMostly cloudy.2 mph88%30.09 "Hg5 mi
11:00 AM70 °FMore clouds than sun.5 mph94%30.09 "Hg4 mi
10:00 AM70 °FLight rain. Cloudy.3 mph94%30.09 "Hg3 mi
9:00 AM72 °FMore clouds than sun.5 mph83%30.07 "Hg5 mi
8:00 AM72 °FLight rain. Cloudy.5 mph88%30.07 "Hg4 mi
7:00 AM73 °FLight rain. More clouds than sun.12 mph78%30.04 "Hg4 mi
Weather by CustomWeather, © 2016

See weather overviewHow to use our weather pages